Wind_Speed
35 36 36 37 38 39 41 42 41 41 42 41 40 39 38 37 37 37 37 37 36 36 36 36 37 37 37 37 36 36 37 37 37 37 38 38 39 38 38 38 39 39 39
35 36 36 37 38 39 40 40 41 41 41 40 41 41 40 38 38 38 38 38 38 38 37 37 38 38 37 37 37 38 38 38 38 39 39 39 39 39 38 38 39 39 40
34 35 35 36 38 39 39 40 40 41 41 42 42 41 41 40 39 39 39 39 39 39 38 38 38 39 38 38 38 38 39 39 40 40 41 40 40 39 39 39 40 40 40
35 35 36 36 37 38 39 40 41 41 41 42 42 43 42 41 39 39 39 40 40 39 40 40 41 41 40 40 39 40 40 40 40 41 41 41 41 41 39 39 40 40 40
35 35 36 37 37 37 39 40 41 42 41 42 43 43 42 42 42 40 39 40 41 41 42 42 42 42 42 42 41 41 42 42 42 42 42 42 42 42 41 41 41 41 42
35 36 36 37 37 38 39 40 40 42 43 43 43 43 43 43 43 43 41 40 41 42 43 43 43 43 43 43 43 43 42 42 43 43 43 43 43 43 43 43 43 43 43
34 34 35 36 37 39 39 39 41 42 43 43 43 43 43 44 43 43 42 41 41 42 43 45 45 45 44 44 44 44 45 44 43 43 44 44 44 45 45 45 44 43 43
32 33 34 36 37 38 39 39 41 41 42 42 42 43 43 44 44 44 43 42 42 42 43 44 45 45 45 45 45 45 45 45 45 46 46 46 46 46 45 45 45 45 44
31 32 33 34 36 37 38 39 40 41 42 42 42 43 44 44 44 45 44 43 42 42 43 44 45 45 46 47 47 46 46 46 46 46 47 47 47 46 46 46 46 46 45
32 33 34 35 35 36 37 38 40 41 42 43 43 43 44 44 44 44 44 44 44 43 43 44 45 45 46 48 47 47 46 46 46 46 47 46 46 47 46 46 46 47 47
30 32 32 33 34 35 37 38 39 40 41 42 42 43 43 44 45 44 44 45 45 46 45 45 46 47 47 46 46 47 47 47 47 47 47 47 46 46 46 46 47 47 47
29 30 31 31 32 34 35 36 38 39 40 41 42 43 43 43 44 44 45 45 46 47 47 46 47 47 48 48 48 48 48 49 48 48 48 48 47 47 47 47 48 47 47
27 28 30 31 33 33 34 35 36 37 38 40 41 42 43 44 44 44 45 46 46 46 47 47 47 47 48 49 49 49 50 51 50 50 50 50 49 48 48 48 48 48 48
28 29 29 30 32 33 33 34 35 36 37 39 40 42 42 43 44 45 45 46 46 46 46 46 46 47 47 49 50 49 50 50 49 49 50 50 50 50 49 50 49 49 49
28 29 30 30 31 31 32 33 34 35 36 38 39 40 42 43 44 45 45 46 46 47 47 46 47 47 47 48 49 49 49 48 48 49 49 50 50 50 51 51 51 50 50
29 29 30 30 30 31 31 32 33 35 36 37 38 39 41 42 43 44 44 45 47 47 48 48 47 47 47 47 47 48 47 47 47 48 49 50 49 49 50 50 50 50 50
31 31 31 31 31 31 31 32 33 34 36 36 38 39 40 40 41 43 44 45 46 47 48 49 49 48 48 48 48 48 48 48 47 46 47 47 48 48 49 49 50 49 49
31 32 32 32 31 32 33 34 34 35 35 36 37 37 38 40 40 42 43 45 46 46 47 48 48 48 48 48 48 47 47 47 46 46 45 46 46 46 47 46 46 47 47
31 31 32 32 33 33 34 34 35 35 36 36 36 36 37 38 39 40 42 44 45 46 46 46 46 46 46 46 46 45 46 46 45 45 46 45 45 46 46 45 45 46 46
30 31 32 32 33 34 34 34 34 35 35 35 35 36 36 37 38 39 41 42 43 44 44 44 44 45 45 44 44 44 44 44 44 44 44 45 46 45 45 45 46 46 47
29 30 31 32 32 33 33 34 34 34 35 35 36 36 37 37 38 39 39 40 41 42 41 41 41 42 42 43 42 42 42 42 42 42 42 43 45 45 45 45 45 46 46
28 29 30 31 32 33 33 34 34 34 34 35 35 35 36 37 37 38 38 38 39 39 39 39 38 39 40 40 41 41 41 41 41 41 42 43 43 43 43 44 44 43 43
28 29 30 30 31 32 32 32 33 33 33 34 34 34 35 36 36 36 36 36 37 37 37 37 37 38 39 39 39 39 40 40 41 41 42 42 42 42 42 42 42 42 40
28 29 29 30 30 31 31 31 30 31 31 32 32 33 33 34 34 35 35 35 35 35 34 34 35 36 37 37 38 38 39 40 41 42 42 42 42 42 42 41 41 40 40
29 29 30 29 28 28 28 29 29 29 29 30 31 32 32 32 33 33 33 33 33 32 32 33 33 34 35 35 36 36 38 39 40 41 40 41 41 41 41 41 40 39 39
28 28 28 28 27 27 27 27 27 27 27 28 29 29 30 30 31 32 32 32 32 32 32 32 32 32 33 33 34 35 37 38 39 39 39 39 39 40 40 39 39 38 39
Wind_Direction
253 252 251 250 249 248 247 246 247 248 249 249 250 251 252 253 254 256 257 258 260 260 260 261 262 262 263 264 265 264 264 264 264 265 266 268 270 272 273 273 273 273 273
254 254 252 251 250 249 247 247 247 248 248 248 250 251 252 253 253 255 257 258 259 259 259 260 262 264 265 265 265 264 264 264 265 266 267 268 269 271 272 273 272 272 273
255 255 254 253 250 249 247 246 247 248 248 249 249 251 253 254 255 255 256 257 259 260 260 261 262 264 265 265 266 265 265 265 265 266 267 268 269 270 271 271 271 272 273
256 254 253 253 251 249 246 245 246 247 248 248 250 252 253 254 255 257 257 257 259 260 260 262 263 263 264 266 267 267 266 266 267 268 268 269 270 271 270 270 271 272 273
256 255 253 252 252 249 245 245 246 248 248 249 251 252 253 254 256 257 258 259 260 260 260 261 263 264 265 267 267 268 268 268 268 268 269 270 270 270 270 270 271 273 274
256 255 253 251 250 247 245 245 246 247 247 250 250 251 253 254 257 259 260 260 260 261 261 262 263 265 266 267 268 269 269 269 269 269 268 269 270 270 271 272 273 274 275
257 255 252 250 248 247 246 247 247 247 248 250 251 252 253 255 257 260 262 261 261 261 262 262 263 266 266 267 267 268 269 269 269 270 270 270 270 271 272 273 273 274 275
258 256 252 250 248 247 248 248 248 247 249 250 252 253 254 256 257 259 261 263 263 263 263 263 264 265 266 267 267 268 269 269 269 270 270 270 271 271 272 273 274 274 274
259 257 255 253 250 249 249 249 249 249 251 253 255 255 255 256 258 259 260 262 264 264 264 263 263 265 267 268 268 269 268 268 269 268 269 270 270 270 271 273 274 275 275
261 258 256 253 251 250 252 252 251 251 252 254 256 256 256 256 258 259 260 261 262 265 266 265 265 266 267 267 268 268 268 267 267 267 268 269 270 270 271 272 273 275 276
264 260 256 254 253 253 253 254 253 253 255 255 256 257 257 257 258 259 260 261 263 265 267 268 269 268 268 268 268 268 267 267 267 267 267 269 269 270 271 272 273 275 276
265 261 258 257 258 258 257 257 257 258 259 258 257 257 257 258 260 260 261 262 264 266 268 269 269 270 269 269 270 269 268 268 268 268 268 269 270 269 270 271 272 274 275
268 265 261 260 259 259 259 259 260 260 261 260 259 260 260 260 261 261 262 263 264 265 267 268 269 270 271 270 270 269 269 268 268 269 269 269 269 269 270 271 272 274 275
269 269 266 264 262 260 259 259 260 260 261 261 262 262 262 263 263 264 264 264 264 265 267 268 269 270 271 272 272 270 268 268 268 268 269 270 270 270 271 272 272 274 275
271 270 270 268 266 263 262 262 263 264 264 264 265 265 265 265 266 267 267 267 266 266 267 269 271 271 272 273 273 271 270 269 269 268 269 270 271 272 273 273 273 275 276
274 273 271 270 268 267 266 267 267 267 267 267 267 267 267 268 269 269 269 268 267 268 269 270 271 273 274 274 274 272 271 271 270 269 270 272 271 272 273 272 273 275 276
274 274 272 270 269 268 268 270 269 270 270 269 268 268 269 269 269 270 270 269 269 269 269 270 270 272 273 274 274 273 272 272 271 271 272 272 271 271 271 271 272 274 275
275 274 273 272 272 271 271 272 273 272 273 273 272 271 271 270 270 270 270 270 270 271 271 270 270 271 272 273 272 272 273 273 272 272 272 272 272 272 271 272 273 274 275
275 275 275 273 273 272 273 273 273 274 275 274 273 274 274 273 273 272 272 272 272 272 273 272 270 270 271 271 271 271 272 272 272 272 273 273 272 271 271 272 274 275 276
275 274 274 274 274 275 274 274 273 273 274 274 275 275 275 275 275 276 276 276 275 274 274 272 270 269 269 269 269 270 270 271 271 272 273 273 274 274 273 274 275 276 276
277 276 275 275 275 275 275 275 275 274 274 275 276 277 277 277 277 278 278 278 278 276 275 273 271 269 268 268 268 268 269 269 269 270 271 272 274 274 275 276 276 276 275
278 278 278 277 276 276 276 276 277 276 275 276 277 277 278 278 278 279 279 279 279 277 275 273 272 270 269 269 269 268 268 269 269 270 271 273 273 274 275 276 276 275 274
279 280 281 280 278 277 277 278 278 277 277 277 278 279 280 280 280 281 281 281 280 278 276 274 272 271 270 270 269 267 268 270 271 272 273 274 273 273 274 275 276 275 274
281 283 284 283 281 279 279 280 280 280 279 279 279 281 282 282 283 282 283 283 282 279 278 277 275 273 272 270 269 269 269 271 272 274 275 274 272 273 274 274 275 275 274
281 283 284 284 282 281 281 281 281 283 283 283 282 282 283 284 284 285 285 285 284 281 281 279 277 274 273 271 271 271 271 272 273 274 276 275 273 273 273 273 273 273 272
282 283 284 284 282 282 282 282 282 284 285 285 285 285 286 286 286 287 286 285 284 283 284 284 281 277 275 273 274 274 273 272 273 275 276 276 274 274 274 274 274 273 272
Height
5719 5720 5722 5724 5726 5729 5732 5735 5739 5742 5745 5747 5750 5752 5753 5755 5756 5757 5758 5759 5760 5761 5761 5762 5763 5763 5764 5764 5764 5765 5765 5766 5767 5768 5769 5770 5770 5770 5770 5770 5769 5769 5769
5710 5712 5713 5715 5716 5719 5722 5725 5729 5732 5735 5738 5741 5743 5745 5746 5747 5748 5749 5750 5751 5752 5753 5754 5754 5755 5755 5755 5756 5756 5756 5757 5757 5758 5759 5760 5762 5761 5761 5760 5760 5759 5759
5701 5702 5703 5705 5707 5709 5713 5716 5719 5723 5726 5729 5731 5733 5736 5737 5738 5739 5740 5742 5743 5744 5744 5745 5746 5746 5747 5747 5747 5747 5747 5748 5748 5748 5749 5750 5751 5751 5751 5750 5749 5749 5749
5692 5693 5694 5696 5698 5700 5703 5706 5710 5713 5716 5719 5721 5724 5726 5729 5730 5731 5732 5733 5734 5734 5735 5736 5736 5737 5738 5738 5738 5738 5738 5738 5739 5739 5739 5739 5739 5740 5741 5741 5740 5739 5739
5683 5684 5685 5686 5689 5691 5694 5697 5701 5704 5707 5710 5712 5715 5717 5719 5721 5721 5722 5723 5724 5725 5726 5726 5727 5727 5728 5728 5728 5728 5729 5729 5729 5729 5729 5729 5729 5729 5729 5730 5730 5729 5729
5674 5675 5676 5678 5680 5682 5685 5688 5692 5695 5698 5701 5703 5705 5707 5709 5711 5712 5713 5714 5715 5716 5716 5717 5717 5717 5717 5718 5718 5718 5718 5718 5719 5719 5719 5718 5718 5718 5718 5719 5719 5719 5719
5665 5666 5667 5669 5671 5673 5675 5679 5682 5686 5688 5691 5693 5695 5697 5699 5701 5702 5703 5704 5705 5706 5706 5706 5707 5707 5707 5707 5707 5707 5708 5708 5708 5708 5708 5708 5707 5707 5707 5707 5707 5707 5708
5657 5658 5659 5660 5662 5664 5667 5670 5672 5676 5678 5681 5683 5685 5687 5689 5691 5692 5693 5694 5694 5695 5695 5696 5696 5696 5696 5696 5696 5696 5696 5696 5696 5696 5696 5696 5696 5695 5695 5695 5695 5695 5696
5650 5651 5651 5652 5653 5656 5658 5661 5663 5665 5668 5671 5673 5675 5676 5678 5680 5681 5682 5683 5684 5684 5684 5685 5685 5685 5685 5685 5685 5685 5685 5685 5684 5684 5684 5683 5683 5683 5683 5682 5682 5683 5683
5642 5643 5643 5644 5646 5647 5649 5651 5653 5656 5658 5660 5662 5664 5665 5667 5669 5670 5671 5672 5673 5673 5673 5673 5673 5673 5673 5673 5673 5673 5672 5672 5672 5672 5671 5671 5671 5670 5670 5670 5670 5669 5670
5635 5635 5636 5637 5638 5639 5641 5642 5644 5646 5648 5649 5651 5653 5654 5656 5657 5658 5660 5660 5661 5661 5662 5662 5661 5661 5661 5660 5660 5660 5660 5660 5659 5659 5659 5659 5658 5658 5658 5658 5657 5657 5657
5629 5629 5629 5629 5630 5631 5632 5634 5635 5637 5637 5639 5640 5641 5643 5644 5645 5647 5648 5648 5649 5650 5650 5649 5649 5648 5648 5648 5647 5647 5647 5646 5646 5646 5646 5646 5646 5646 5646 5645 5645 5645 5644
5623 5622 5622 5622 5622 5623 5624 5625 5626 5627 5628 5628 5629 5631 5632 5633 5634 5634 5635 5636 5637 5637 5637 5637 5636 5636 5635 5634 5634 5633 5633 5633 5633 5633 5633 5633 5632 5633 5632 5632 5632 5631 5631
5616 5615 5615 5615 5615 5615 5615 5616 5616 5617 5618 5619 5619 5620 5621 5621 5622 5623 5623 5624 5624 5624 5624 5624 5623 5623 5622 5621 5620 5620 5619 5619 5619 5619 5619 5619 5619 5619 5619 5619 5618 5618 5617
5608 5608 5607 5607 5607 5607 5607 5607 5607 5607 5608 5608 5608 5609 5610 5610 5610 5611 5611 5611 5611 5611 5611 5610 5610 5609 5608 5607 5606 5606 5606 5606 5606 5606 5606 5605 5605 5605 5605 5605 5605 5604 5604
5601 5600 5599 5599 5598 5598 5598 5598 5598 5598 5597 5597 5597 5598 5599 5599 5599 5599 5599 5599 5598 5598 5598 5597 5597 5596 5595 5594 5593 5592 5592 5592 5592 5593 5592 5592 5592 5591 5591 5591 5590 5590 5590
5592 5591 5591 5590 5590 5590 5589 5589 5589 5588 5587 5587 5587 5587 5587 5587 5587 5587 5586 5586 5586 5585 5585 5584 5583 5582 5581 5580 5579 5578 5579 5579 5579 5579 5579 5579 5579 5578 5578 5577 5577 5576 5575
5583 5583 5582 5581 5581 5581 5580 5579 5579 5578 5577 5577 5576 5576 5575 5575 5575 5574 5574 5573 5573 5572 5571 5571 5570 5569 5568 5567 5566 5565 5565 5566 5566 5566 5567 5567 5566 5565 5565 5564 5564 5563 5563
5574 5573 5573 5572 5572 5571 5571 5570 5569 5568 5567 5566 5566 5565 5564 5563 5563 5562 5561 5561 5560 5559 5558 5557 5556 5556 5555 5554 5553 5553 5553 5553 5554 5554 5554 5554 5554 5553 5552 5552 5552 5551 5550
5565 5564 5563 5563 5562 5561 5561 5560 5559 5558 5557 5557 5556 5555 5554 5553 5552 5551 5549 5548 5547 5546 5544 5543 5543 5542 5542 5541 5541 5541 5541 5542 5542 5542 5541 5541 5541 5540 5539 5538 5538 5538 5537
5556 5555 5554 5554 5553 5552 5551 5550 5549 5548 5547 5546 5545 5544 5543 5542 5541 5539 5538 5536 5534 5533 5532 5531 5530 5530 5529 5529 5529 5529 5529 5530 5530 5530 5529 5529 5527 5526 5526 5525 5525 5525 5523
5548 5547 5546 5545 5544 5542 5541 5540 5539 5538 5537 5536 5535 5534 5532 5531 5530 5528 5527 5525 5523 5521 5520 5519 5518 5518 5517 5517 5517 5517 5518 5518 5518 5518 5518 5516 5515 5514 5513 5513 5512 5511 5510
5540 5539 5537 5536 5534 5532 5531 5530 5529 5528 5527 5526 5525 5523 5522 5521 5519 5518 5516 5514 5512 5510 5509 5508 5507 5507 5506 5506 5505 5505 5506 5506 5506 5506 5505 5504 5503 5502 5501 5500 5499 5498 5498
5532 5530 5529 5527 5525 5523 5522 5520 5520 5518 5517 5516 5515 5513 5512 5510 5509 5507 5505 5504 5501 5500 5498 5498 5497 5496 5495 5495 5494 5494 5494 5494 5494 5493 5493 5492 5491 5490 5489 5488 5487 5486 5486
5524 5522 5520 5518 5516 5514 5513 5512 5511 5509 5508 5507 5505 5504 5502 5501 5499 5497 5495 5493 5491 5490 5489 5488 5487 5486 5485 5485 5484 5483 5483 5482 5482 5481 5480 5479 5478 5477 5477 5476 5475 5475 5474
5515 5514 5512 5510 5508 5506 5505 5504 5502 5501 5500 5498 5497 5495 5494 5492 5490 5488 5485 5483 5482 5480 5479 5477 5476 5475 5474 5474 5473 5472 5472 5471 5470 5469 5468 5468 5467 5466 5465 5465 5464 5463 5463